THORAD AGENA D DEB

Satellite information

Favourite Embed

Satellite Type and Status

DEBRISIN ORBIT

Key statistics

Satellite THORAD AGENA D DEB at a glance.

Uptime

20343

Days in orbit

Revolutions

≈ 13.6

Per day

Orbit

SSO

Sun Synchronous Orbit

Inclination

100.0

Latest

Satellite identification and parameters

Extended collection of information and parameters for THORAD AGENA D DEB.

Object identification

Identified? True

Debris? True

Object name: THORAD AGENA D DEB

International designator: 1970-025EC

Object number (NORAD): 4821

Object ID (CCSDS): 4821

Country: UNITED STATES OF AMERICA (US)

Current information (Y/N): Y

RCS size: SMALL

Orbital parameters

Period: 105.947 minutes

Inclination: 100.0402 deg

SMA: 7416.847 km

Apoapsis: 1045.467 km

Periapsis: 1031.958 km

RAAN: 25.1738 deg

Eccentricy: 0.0009107

Argument of periapsis: 320.9067 deg

Mean anomaly: 69.318 deg

Mean motion: 13.59169939 rev/day

Mean motion (dot): 0.0000026 rev/day2

B* drag term: 0.00041677474 1/REarth

Two-line elements (TLE)

Creation date: Dec. 16, 2025, 6:50 p.m.

Reference frame: TEME

Reference center: EARTH

Epoch: Dec. 16, 2025, 12:54 a.m. UTC

TLE line 0: 0 THORAD AGENA D DEB

TLE line 1: 1 04821U 70025EC 25350.03799473 .00000260 00000-0 41677-3 0 9992

TLE line 2: 2 04821 100.0402 25.1738 0009107 320.9067 69.3180 13.59169939751335

Live tracking on map

Real-time ground track for satellite THORAD AGENA D DEB.

In-orbit conjunctions

A list of the most updated potential collisions computed for object THORAD AGENA D DEB.

Target Orbit TCA Probability of collision Miss distance Type
OSCAR 30 SSO 2025-05-18 17:38:50 0.0003067582 313.0 (m) PAYLOAD
THORAD AGENA D DEB SSO 2024-10-15 00:07:24 0.0001645561 181.0 (m) DEBRIS

Associated space launch

Meteorological research and development satellite

THORAD AGENA D DEB was lifted into orbit during the mission ‘Thorad SLV-2G Agena D | Nimbus 4’, on board a Thorad SLV-2G Agena D space rocket.

The launch took place on April 8, 1970, 8:17 a.m. from Space Launch Complex 2E.

For more information about the launch, click the button.

Launch to space Thorad SLV-2G Agena D | Nimbus 4
Thorad SLV-2G Agena D | Nimbus 4

Agency: N/A

Status: Launch Successful

Launch date: April 8, 1970, 8:17 a.m. UTC

Rocket: Thorad SLV-2G Agena D

Launch pad: Space Launch Complex 2E

Location: Vandenberg SFB, CA, USA

...

Latest news about this satellite

There are no fresh news available about this satellite. Check back as we update our databases every day.


Newsletter sign-up

Weekly statistics, charts and insights to help you stay on top of the space industry.